1579993240,2020-01-26 00:00,84.53,995.05,0.00,1023.96,-1.56,0.00,240,0.1
1579993300,2020-01-26 00:01,84.50,995.08,0.00,1024.00,-1.50,0.00,240,0.1
1579993360,2020-01-26 00:02,84.30,995.08,0.00,1023.99,-1.49,0.00,240,0.1
1579993420,2020-01-26 00:03,84.21,995.09,0.00,1024.01,-1.48,0.00,240,0.1
1579993480,2020-01-26 00:04,83.71,995.10,0.00,1024.01,-1.46,0.00,240,0.1
1579993540,2020-01-26 00:05,84.92,995.04,0.00,1023.96,-1.80,0.00,240,0.1
1579993600,2020-01-26 00:06,84.80,995.10,0.00,1024.02,-1.63,0.00,240,0.1
1579993661,2020-01-26 00:07,84.64,995.05,0.00,1023.97,-1.53,0.00,240,0.1
1579993721,2020-01-26 00:08,84.44,995.06,0.00,1023.98,-1.58,0.00,240,0.1
1579993781,2020-01-26 00:09,84.76,995.01,0.00,1023.93,-1.66,0.00,240,0.1
1579993841,2020-01-26 00:10,84.56,995.10,0.00,1024.02,-1.63,0.00,240,0.1
1579993901,2020-01-26 00:11,84.50,995.03,0.00,1023.95,-1.57,0.00,240,0.1
1579993962,2020-01-26 00:12,84.28,995.02,0.00,1023.94,-1.46,0.00,240,0.1
1579994022,2020-01-26 00:13,84.33,995.08,0.00,1023.99,-1.73,0.00,240,0.1
1579994082,2020-01-26 00:14,85.14,995.06,0.00,1023.98,-1.74,0.00,240,0.1
1579994142,2020-01-26 00:15,84.44,995.06,0.00,1023.98,-1.49,0.00,240,0.1
1579994202,2020-01-26 00:16,84.19,995.06,0.00,1023.98,-1.48,0.00,240,0.1
1579994262,2020-01-26 00:17,84.01,995.07,0.00,1023.98,-1.43,0.00,240,0.1
1579994322,2020-01-26 00:18,84.03,995.05,0.00,1023.97,-1.38,0.00,240,0.1
1579994382,2020-01-26 00:19,84.28,995.02,0.00,1023.93,-1.51,0.00,240,0.1
1579994443,2020-01-26 00:20,84.62,995.04,0.00,1023.95,-1.54,0.00,240,0.1
1579994503,2020-01-26 00:21,84.63,995.07,0.00,1023.99,-1.64,0.00,240,0.1
1579994563,2020-01-26 00:22,84.13,995.07,0.00,1023.99,-1.42,0.00,240,0.1
1579994623,2020-01-26 00:23,83.86,995.06,0.00,1023.97,-1.44,0.00,240,0.1
1579994683,2020-01-26 00:24,83.91,995.08,0.00,1024.00,-1.38,0.00,240,0.1
1579994743,2020-01-26 00:25,84.25,995.07,0.00,1023.99,-1.64,0.00,240,0.1
1579994803,2020-01-26 00:26,84.40,995.14,0.00,1024.06,-1.72,0.00,240,0.1
1579994863,2020-01-26 00:27,84.73,995.04,0.00,1023.96,-1.61,0.00,240,0.1
1579994923,2020-01-26 00:28,84.42,995.09,0.00,1024.00,-1.55,0.00,240,0.1
1579994983,2020-01-26 00:29,83.97,995.07,0.00,1023.98,-1.50,0.00,240,0.1
1579995043,2020-01-26 00:30,85.18,995.11,0.00,1024.02,-1.92,0.00,240,0.1
1579995103,2020-01-26 00:31,85.23,995.02,0.00,1023.93,-1.80,0.00,240,0.1
1579995163,2020-01-26 00:32,84.58,995.04,0.00,1023.96,-1.45,0.00,240,0.1
1579995224,2020-01-26 00:33,83.92,995.06,0.00,1023.98,-1.36,0.00,240,0.1
1579995284,2020-01-26 00:34,83.49,995.05,0.00,1023.97,-1.11,0.00,240,0.1
1579995344,2020-01-26 00:35,83.46,995.09,0.00,1024.01,-1.33,0.00,240,0.1
1579995404,2020-01-26 00:36,83.50,995.10,0.00,1024.02,-1.24,0.00,240,0.1
1579995464,2020-01-26 00:37,83.67,995.06,0.00,1023.98,-1.45,0.00,240,0.1
1579995524,2020-01-26 00:38,83.92,995.11,0.00,1024.02,-1.39,0.00,240,0.1
1579995584,2020-01-26 00:39,84.15,995.06,0.00,1023.97,-1.48,0.00,240,0.1
1579995644,2020-01-26 00:40,83.98,995.11,0.00,1024.03,-1.47,0.00,240,0.1
1579995705,2020-01-26 00:41,83.80,995.04,0.00,1023.96,-1.31,0.00,240,0.1
1579995765,2020-01-26 00:42,83.65,995.11,0.00,1024.02,-1.27,0.00,240,0.1
1579995825,2020-01-26 00:43,83.36,995.09,0.00,1024.00,-1.14,0.00,240,0.1
1579995885,2020-01-26 00:44,83.33,995.07,0.00,1023.99,-1.04,0.00,240,0.1
1579995945,2020-01-26 00:45,82.92,995.09,0.00,1024.00,-1.14,0.00,240,0.1
1579996005,2020-01-26 00:46,83.43,995.07,0.00,1023.99,-1.28,0.00,240,0.1
1579996065,2020-01-26 00:47,83.60,995.13,0.00,1024.05,-1.26,0.00,240,0.1
1579996125,2020-01-26 00:48,82.93,995.15,0.00,1024.06,-1.04,0.00,240,0.1
1579996185,2020-01-26 00:49,82.19,995.08,0.00,1023.99,-0.84,0.00,240,0.1
1579996245,2020-01-26 00:50,81.73,995.13,0.00,1024.05,-0.84,0.00,240,0.1
1579996306,2020-01-26 00:51,82.41,995.16,0.00,1024.08,-1.16,0.00,240,0.1
1579996366,2020-01-26 00:52,83.16,995.15,0.00,1024.06,-1.30,0.00,240,0.1
1579996426,2020-01-26 00:53,83.80,995.13,0.00,1024.04,-1.53,0.00,240,0.1
1579996486,2020-01-26 00:54,84.42,995.22,0.00,1024.13,-1.78,0.00,240,0.1
1579996546,2020-01-26 00:55,85.50,995.14,0.00,1024.05,-2.01,0.00,240,0.1
1579996607,2020-01-26 00:56,85.30,995.12,0.00,1024.04,-1.75,0.00,240,0.1
1579996667,2020-01-26 00:57,84.54,995.07,0.00,1023.99,-1.54,0.00,240,0.1
1579996727,2020-01-26 00:58,84.03,995.08,0.00,1024.00,-1.42,0.00,240,0.1
1579996787,2020-01-26 00:59,83.78,995.08,0.00,1024.00,-1.43,0.00,240,0.1
1579996847,2020-01-26 01:00,83.71,995.10,0.00,1024.02,-1.47,0.00,240,0.1
1579996907,2020-01-26 01:01,84.03,995.13,0.00,1024.05,-1.67,0.00,240,0.1
1579996967,2020-01-26 01:02,85.11,995.10,0.00,1024.01,-1.87,0.00,240,0.1
1579997027,2020-01-26 01:03,84.81,995.07,0.00,1023.98,-1.70,0.00,240,0.1
1579997088,2020-01-26 01:04,85.12,995.03,0.00,1023.95,-1.83,0.00,240,0.1
1579997148,2020-01-26 01:05,85.53,995.10,0.00,1024.01,-2.02,0.00,240,0.1
1579997208,2020-01-26 01:06,85.79,995.07,0.00,1023.99,-2.01,0.00,240,0.1
1579997268,2020-01-26 01:07,85.21,995.02,0.00,1023.93,-1.59,0.00,240,0.1
1579997328,2020-01-26 01:08,84.47,995.04,0.00,1023.95,-1.39,0.00,240,0.1
1579997389,2020-01-26 01:09,83.70,995.04,0.00,1023.95,-1.26,0.00,240,0.1
1579997449,2020-01-26 01:10,83.04,995.03,0.00,1023.95,-1.10,0.00,240,0.1
1579997509,2020-01-26 01:11,83.73,995.04,0.00,1023.96,-1.40,0.00,240,0.1
1579997569,2020-01-26 01:12,84.46,995.02,0.00,1023.93,-1.60,0.00,240,0.1
1579997629,2020-01-26 01:13,83.99,995.06,0.00,1023.97,-1.31,0.00,240,0.1
1579997689,2020-01-26 01:14,83.60,995.06,0.00,1023.98,-1.28,0.00,240,0.1
1579997749,2020-01-26 01:15,83.27,995.07,0.00,1023.99,-1.20,0.00,240,0.1
1579997809,2020-01-26 01:16,83.24,995.03,0.00,1023.95,-1.23,0.00,240,0.1
1579997869,2020-01-26 01:17,83.03,995.06,0.00,1023.98,-1.18,0.00,240,0.1
1579997929,2020-01-26 01:18,83.15,995.02,0.00,1023.93,-1.37,0.00,240,0.1
1579997990,2020-01-26 01:19,83.54,995.00,0.00,1023.91,-1.31,0.00,240,0.1
1579998050,2020-01-26 01:20,84.23,994.98,0.00,1023.90,-1.60,0.00,240,0.1
1579998110,2020-01-26 01:21,83.54,994.99,0.00,1023.91,-1.42,0.00,240,0.1
1579998170,2020-01-26 01:22,83.58,994.99,0.00,1023.91,-1.35,0.00,240,0.1
1579998230,2020-01-26 01:23,83.37,994.97,0.00,1023.88,-1.29,0.00,240,0.1
1579998290,2020-01-26 01:24,83.36,994.98,0.00,1023.90,-1.33,0.00,240,0.1
1579998350,2020-01-26 01:25,83.25,994.98,0.00,1023.89,-1.34,0.00,240,0.1
1579998410,2020-01-26 01:26,82.62,994.99,0.00,1023.90,-1.16,0.00,240,0.1
1579998470,2020-01-26 01:27,82.55,994.96,0.00,1023.88,-1.24,0.00,240,0.1
1579998530,2020-01-26 01:28,83.52,994.97,0.00,1023.89,-1.57,0.00,240,0.1
1579998590,2020-01-26 01:29,83.77,994.99,0.00,1023.90,-1.47,0.00,240,0.1
1579998650,2020-01-26 01:30,83.21,994.99,0.00,1023.90,-1.34,0.00,240,0.1
1579998710,2020-01-26 01:31,83.06,995.04,0.00,1023.95,-1.17,0.00,240,0.1
1579998771,2020-01-26 01:32,82.98,995.08,0.00,1023.99,-1.31,0.00,240,0.1
1579998831,2020-01-26 01:33,83.01,995.05,0.00,1023.97,-1.15,0.00,240,0.1
1579998891,2020-01-26 01:34,82.59,995.11,0.00,1024.03,-1.10,0.00,240,0.1
1579998951,2020-01-26 01:35,83.30,995.07,0.00,1023.98,-1.61,0.00,240,0.1
1579999011,2020-01-26 01:36,83.23,995.09,0.00,1024.00,-1.38,0.00,240,0.1
1579999071,2020-01-26 01:37,82.89,995.12,0.00,1024.04,-1.24,0.00,240,0.1
1579999131,2020-01-26 01:38,83.28,995.13,0.00,1024.04,-1.38,0.00,240,0.1
1579999192,2020-01-26 01:39,83.27,995.07,0.00,1023.99,-1.57,0.00,240,0.1
1579999252,2020-01-26 01:40,83.49,995.10,0.00,1024.02,-1.41,0.00,240,0.1
1579999312,2020-01-26 01:41,82.96,995.15,0.00,1024.06,-1.26,0.00,240,0.1
1579999372,2020-01-26 01:42,82.83,995.12,0.00,1024.04,-1.28,0.00,240,0.1
1579999432,2020-01-26 01:43,83.05,995.08,0.00,1024.00,-1.31,0.00,240,0.1
1579999492,2020-01-26 01:44,84.02,995.10,0.00,1024.02,-1.61,0.00,240,0.1
1579999552,2020-01-26 01:45,83.89,995.10,0.00,1024.02,-1.45,0.00,240,0.1
1579999613,2020-01-26 01:46,82.96,995.06,0.00,1023.97,-1.16,0.00,240,0.1
1579999673,2020-01-26 01:47,82.88,995.08,0.00,1024.00,-1.19,0.00,240,0.1
1579999733,2020-01-26 01:48,82.90,995.13,0.00,1024.04,-1.24,0.00,240,0.1
1579999793,2020-01-26 01:49,83.50,995.11,0.00,1024.02,-1.47,0.00,240,0.1
1579999853,2020-01-26 01:50,82.99,995.07,0.00,1023.98,-1.22,0.00,240,0.1
1579999913,2020-01-26 01:51,83.22,995.08,0.00,1024.00,-1.29,0.00,240,0.1
1579999974,2020-01-26 01:52,82.90,995.12,0.00,1024.04,-1.28,0.00,240,0.1
1580000034,2020-01-26 01:53,83.17,995.08,0.00,1024.00,-1.30,0.00,240,0.1
1580000094,2020-01-26 01:54,83.00,995.04,0.00,1023.96,-1.27,0.00,240,0.1
1580000154,2020-01-26 01:55,82.62,995.09,0.00,1024.01,-1.14,0.00,240,0.1
1580000215,2020-01-26 01:56,82.75,995.12,0.00,1024.03,-1.16,0.00,240,0.1
1580000275,2020-01-26 01:57,82.64,995.08,0.00,1023.99,-1.18,0.00,240,0.1
1580000335,2020-01-26 01:58,82.65,995.09,0.00,1024.00,-1.17,0.00,240,0.1
1580000396,2020-01-26 01:59,82.42,995.08,0.00,1024.00,-1.30,0.00,240,0.1
1580000456,2020-01-26 02:00,83.16,995.08,0.00,1023.99,-1.37,0.00,240,0.1
1580000516,2020-01-26 02:01,83.32,995.06,0.00,1023.97,-1.41,0.00,240,0.1
1580000576,2020-01-26 02:02,83.11,995.16,0.00,1024.08,-1.42,0.00,240,0.1
1580000636,2020-01-26 02:03,83.55,995.07,0.00,1023.99,-1.50,0.00,240,0.1
1580000696,2020-01-26 02:04,83.55,995.02,0.00,1023.94,-1.42,0.00,240,0.1
1580000756,2020-01-26 02:05,83.59,995.05,0.00,1023.97,-1.41,0.00,240,0.1
1580000816,2020-01-26 02:06,83.58,995.03,0.00,1023.95,-1.44,0.00,240,0.1
1580000876,2020-01-26 02:07,83.27,995.04,0.00,1023.96,-1.24,0.00,240,0.1
1580000936,2020-01-26 02:08,83.04,995.06,0.00,1023.97,-1.28,0.00,240,0.1
1580000996,2020-01-26 02:09,83.63,995.03,0.00,1023.95,-1.34,0.00,240,0.1
1580001057,2020-01-26 02:10,82.52,995.00,0.00,1023.92,-1.22,0.00,240,0.1
1580001117,2020-01-26 02:11,83.12,995.02,0.00,1023.94,-1.35,0.00,240,0.1
1580001177,2020-01-26 02:12,83.12,994.97,0.00,1023.89,-1.34,0.00,240,0.1
1580001237,2020-01-26 02:13,83.06,994.97,0.00,1023.89,-1.22,0.00,240,0.1
1580001297,2020-01-26 02:14,83.06,994.98,0.00,1023.89,-1.24,0.00,240,0.1
1580001357,2020-01-26 02:15,83.14,994.99,0.00,1023.90,-1.46,0.00,240,0.1
1580001417,2020-01-26 02:16,83.64,994.99,0.00,1023.91,-1.40,0.00,240,0.1
1580001479,2020-01-26 02:17,83.15,994.97,0.00,1023.89,-1.24,0.00,240,0.1
1580001539,2020-01-26 02:18,83.21,994.95,0.00,1023.86,-1.29,0.00,240,0.1
1580001599,2020-01-26 02:19,83.29,994.95,0.00,1023.87,-1.30,0.00,240,0.1
1580001659,2020-01-26 02:20,83.49,994.90,0.00,1023.82,-1.44,0.00,240,0.1
1580001720,2020-01-26 02:22,83.50,994.91,0.00,1023.83,-1.26,0.00,240,0.1
1580001780,2020-01-26 02:23,83.13,994.96,0.00,1023.87,-1.28,0.00,240,0.1
1580001840,2020-01-26 02:24,83.37,994.96,0.00,1023.88,-1.27,0.00,240,0.1
1580001900,2020-01-26 02:25,83.13,994.90,0.00,1023.82,-1.19,0.00,240,0.1
1580001960,2020-01-26 02:26,82.88,994.95,0.00,1023.87,-1.20,0.00,240,0.1
1580002020,2020-01-26 02:27,83.31,994.96,0.00,1023.88,-1.25,0.00,240,0.1
1580002080,2020-01-26 02:28,83.04,994.95,0.00,1023.87,-1.16,0.00,240,0.1
1580002140,2020-01-26 02:29,83.87,994.97,0.00,1023.89,-1.50,0.00,240,0.1
1580002200,2020-01-26 02:30,83.50,994.93,0.00,1023.85,-1.24,0.00,240,0.1
1580002260,2020-01-26 02:31,83.25,994.93,0.00,1023.85,-1.23,0.00,240,0.1
1580002320,2020-01-26 02:32,83.56,994.89,0.00,1023.81,-1.25,0.00,240,0.1
1580002380,2020-01-26 02:33,83.46,994.94,0.00,1023.86,-1.38,0.00,240,0.1
1580002441,2020-01-26 02:34,83.56,994.89,0.00,1023.81,-1.23,0.00,240,0.1
1580002501,2020-01-26 02:35,83.13,994.87,0.00,1023.79,-1.15,0.00,240,0.1
1580002561,2020-01-26 02:36,82.96,994.85,0.00,1023.77,-1.22,0.00,240,0.1
1580002621,2020-01-26 02:37,82.92,994.88,0.00,1023.79,-1.25,0.00,240,0.1
1580002681,2020-01-26 02:38,83.32,994.87,0.00,1023.78,-1.34,0.00,240,0.1
1580002741,2020-01-26 02:39,83.31,994.85,0.00,1023.77,-1.20,0.00,240,0.1
1580002801,2020-01-26 02:40,82.91,994.83,0.00,1023.75,-1.30,0.00,240,0.1
1580002861,2020-01-26 02:41,83.69,994.80,0.00,1023.71,-1.43,0.00,240,0.1
1580002921,2020-01-26 02:42,83.35,994.79,0.00,1023.71,-1.24,0.00,240,0.1
1580002982,2020-01-26 02:43,83.03,994.78,0.00,1023.69,-1.01,0.00,240,0.1
1580003042,2020-01-26 02:44,82.24,994.81,0.00,1023.72,-0.87,0.00,240,0.1
1580003102,2020-01-26 02:45,82.08,994.82,0.00,1023.74,-0.96,0.00,240,0.1
1580003162,2020-01-26 02:46,82.25,994.74,0.00,1023.65,-0.98,0.00,240,0.1
1580003222,2020-01-26 02:47,82.11,994.75,0.00,1023.66,-0.97,0.00,240,0.1
1580003282,2020-01-26 02:48,82.21,994.72,0.00,1023.64,-1.03,0.00,240,0.1
1580003342,2020-01-26 02:49,82.87,994.73,0.00,1023.65,-1.28,0.00,240,0.1
1580003402,2020-01-26 02:50,83.12,994.71,0.00,1023.62,-1.36,0.00,240,0.1
1580003462,2020-01-26 02:51,83.58,994.64,0.00,1023.56,-1.44,0.00,240,0.1
1580003523,2020-01-26 02:52,83.04,994.65,0.00,1023.56,-1.19,0.00,240,0.1
1580003583,2020-01-26 02:53,83.02,994.68,0.00,1023.60,-1.26,0.00,240,0.1
1580003643,2020-01-26 02:54,83.20,994.60,0.00,1023.51,-1.22,0.00,240,0.1
1580003703,2020-01-26 02:55,83.01,994.60,0.00,1023.51,-1.07,0.00,240,0.1
1580003763,2020-01-26 02:56,82.75,994.61,0.00,1023.53,-1.24,0.00,240,0.1
1580003823,2020-01-26 02:57,83.42,994.66,0.00,1023.58,-1.40,0.00,240,0.1
1580003883,2020-01-26 02:58,83.38,994.63,0.00,1023.55,-1.38,0.00,240,0.1
1580003943,2020-01-26 02:59,83.54,994.63,0.00,1023.55,-1.40,0.00,240,0.1
1580004003,2020-01-26 03:00,83.10,994.62,0.00,1023.53,-1.15,0.00,240,0.1
1580004064,2020-01-26 03:01,82.54,994.67,0.00,1023.59,-1.02,0.00,240,0.1
1580004124,2020-01-26 03:02,82.24,994.68,0.00,1023.59,-0.94,0.00,240,0.1
1580004184,2020-01-26 03:03,82.24,994.70,0.00,1023.62,-0.97,0.00,240,0.1
1580004244,2020-01-26 03:04,81.87,994.70,0.00,1023.62,-0.90,0.00,240,0.1
1580004304,2020-01-26 03:05,81.50,994.65,0.00,1023.56,-0.83,0.00,240,0.1
1580004364,2020-01-26 03:06,81.34,994.63,0.00,1023.54,-0.89,0.00,240,0.1
1580004424,2020-01-26 03:07,81.60,994.63,0.00,1023.55,-0.89,0.00,240,0.1
1580004485,2020-01-26 03:08,81.18,994.63,0.00,1023.55,-0.90,0.00,240,0.1
1580004545,2020-01-26 03:09,81.59,994.60,0.00,1023.51,-1.07,0.00,240,0.1
1580004605,2020-01-26 03:10,81.57,994.59,0.00,1023.50,-1.03,0.00,240,0.1
1580004665,2020-01-26 03:11,81.50,994.63,0.00,1023.54,-0.98,0.00,240,0.1
1580004725,2020-01-26 03:12,81.75,994.57,0.00,1023.49,-1.13,0.00,240,0.1
1580004786,2020-01-26 03:13,82.00,994.60,0.00,1023.52,-1.16,0.00,240,0.1
1580004846,2020-01-26 03:14,81.59,994.56,0.00,1023.48,-0.97,0.00,240,0.1
1580004906,2020-01-26 03:15,81.61,994.56,0.00,1023.47,-1.12,0.00,240,0.1
1580004966,2020-01-26 03:16,82.84,994.51,0.00,1023.42,-1.40,0.00,240,0.1
1580005026,2020-01-26 03:17,82.37,994.55,0.00,1023.47,-1.18,0.00,240,0.1
1580005086,2020-01-26 03:18,82.03,994.55,0.00,1023.47,-1.08,0.00,240,0.1
1580005146,2020-01-26 03:19,82.33,994.47,0.00,1023.39,-1.14,0.00,240,0.1
1580005206,2020-01-26 03:20,81.84,994.48,0.00,1023.40,-0.99,0.00,240,0.1
1580005267,2020-01-26 03:21,81.70,994.42,0.00,1023.33,-1.00,0.00,240,0.1
1580005327,2020-01-26 03:22,82.19,994.47,0.00,1023.38,-1.17,0.00,240,0.1
1580005387,2020-01-26 03:23,82.03,994.47,0.00,1023.39,-1.08,0.00,240,0.1
1580005447,2020-01-26 03:24,81.91,994.48,0.00,1023.39,-1.10,0.00,240,0.1
1580005507,2020-01-26 03:25,82.33,994.47,0.00,1023.38,-1.25,0.00,240,0.1
1580005567,2020-01-26 03:26,82.71,994.43,0.00,1023.35,-1.31,0.00,240,0.1
1580005627,2020-01-26 03:27,82.33,994.43,0.00,1023.35,-1.26,0.00,240,0.1
1580005687,2020-01-26 03:28,82.09,994.45,0.00,1023.37,-1.09,0.00,240,0.1
1580005747,2020-01-26 03:29,81.85,994.40,0.00,1023.32,-1.03,0.00,240,0.1
1580005807,2020-01-26 03:30,81.50,994.37,0.00,1023.28,-0.87,0.00,240,0.1
1580005867,2020-01-26 03:31,81.51,994.36,0.00,1023.28,-1.00,0.00,240,0.1
1580005928,2020-01-26 03:32,81.25,994.39,0.00,1023.30,-0.82,0.00,240,0.1
1580005988,2020-01-26 03:33,81.66,994.37,0.00,1023.28,-1.03,0.00,240,0.1
1580006048,2020-01-26 03:34,81.83,994.42,0.00,1023.33,-1.04,0.00,240,0.1
1580006108,2020-01-26 03:35,82.25,994.35,0.00,1023.27,-1.25,0.00,240,0.1
1580006168,2020-01-26 03:36,81.93,994.35,0.00,1023.26,-0.99,0.00,240,0.1
1580006228,2020-01-26 03:37,81.86,994.35,0.00,1023.26,-1.14,0.00,240,0.1
1580006288,2020-01-26 03:38,82.03,994.35,0.00,1023.26,-1.08,0.00,240,0.1
1580006348,2020-01-26 03:39,81.85,994.34,0.00,1023.25,-1.09,0.00,240,0.1
1580006408,2020-01-26 03:40,82.01,994.34,0.00,1023.26,-1.15,0.00,240,0.1
1580006468,2020-01-26 03:41,81.95,994.28,0.00,1023.19,-0.98,0.00,240,0.1
1580006528,2020-01-26 03:42,81.53,994.31,0.00,1023.23,-0.87,0.00,240,0.1
1580006588,2020-01-26 03:43,81.13,994.28,0.00,1023.20,-0.70,0.00,240,0.1
1580006648,2020-01-26 03:44,81.03,994.31,0.00,1023.23,-0.74,0.00,240,0.1
1580006708,2020-01-26 03:45,80.93,994.34,0.00,1023.26,-0.72,0.00,240,0.1
1580006769,2020-01-26 03:46,80.66,994.30,0.00,1023.22,-0.62,0.00,240,0.1
1580006829,2020-01-26 03:47,80.75,994.35,0.00,1023.27,-0.71,0.00,240,0.1
1580006889,2020-01-26 03:48,81.04,994.30,0.00,1023.21,-0.86,0.00,240,0.1
1580006949,2020-01-26 03:49,80.88,994.25,0.00,1023.17,-0.81,0.00,240,0.1
1580007009,2020-01-26 03:50,80.86,994.34,0.00,1023.25,-0.91,0.00,240,0.1
1580007069,2020-01-26 03:51,81.00,994.26,0.00,1023.17,-0.77,0.00,240,0.1
1580007129,2020-01-26 03:52,80.92,994.30,0.00,1023.21,-0.88,0.00,240,0.1
1580007189,2020-01-26 03:53,81.37,994.29,0.00,1023.20,-0.99,0.00,240,0.1
1580007249,2020-01-26 03:54,81.37,994.26,0.00,1023.17,-0.97,0.00,240,0.1
1580007309,2020-01-26 03:55,81.03,994.26,0.00,1023.18,-0.83,0.00,240,0.1
1580007369,2020-01-26 03:56,80.93,994.27,0.00,1023.18,-0.82,0.00,240,0.1
1580007429,2020-01-26 03:57,81.13,994.29,0.00,1023.21,-0.95,0.00,240,0.1
1580007489,2020-01-26 03:58,81.25,994.26,0.00,1023.18,-0.99,0.00,240,0.1
1580007550,2020-01-26 03:59,81.24,994.21,0.00,1023.13,-0.90,0.00,240,0.1
1580007610,2020-01-26 04:00,81.23,994.20,0.00,1023.12,-0.92,0.00,240,0.1
1580007670,2020-01-26 04:01,80.92,994.19,0.00,1023.10,-0.76,0.00,240,0.1
1580007730,2020-01-26 04:02,80.67,994.21,0.00,1023.13,-0.77,0.00,240,0.1
1580007790,2020-01-26 04:03,80.39,994.18,0.00,1023.09,-0.61,0.00,240,0.1
1580007850,2020-01-26 04:04,80.66,994.22,0.00,1023.13,-0.88,0.00,240,0.1
1580007910,2020-01-26 04:05,80.66,994.19,0.00,1023.11,-0.73,0.00,240,0.1
1580007970,2020-01-26 04:06,80.68,994.22,0.00,1023.14,-0.83,0.00,240,0.1
1580008031,2020-01-26 04:07,80.43,994.20,0.00,1023.12,-0.76,0.00,240,0.1
1580008091,2020-01-26 04:08,80.27,994.15,0.00,1023.06,-0.69,0.00,240,0.1
1580008151,2020-01-26 04:09,80.23,994.20,0.00,1023.11,-0.69,0.00,240,0.1
1580008211,2020-01-26 04:10,80.11,994.16,0.00,1023.07,-0.64,0.00,240,0.1
1580008271,2020-01-26 04:11,80.33,994.17,0.00,1023.08,-0.65,0.00,240,0.1
1580008331,2020-01-26 04:12,80.06,994.13,0.00,1023.05,-0.64,0.00,240,0.1
1580008391,2020-01-26 04:13,80.00,994.15,0.00,1023.07,-0.60,0.00,240,0.1
1580008451,2020-01-26 04:14,80.22,994.15,0.00,1023.06,-0.69,0.00,240,0.1
1580008511,2020-01-26 04:15,79.89,994.18,0.00,1023.09,-0.57,0.00,240,0.1
1580008571,2020-01-26 04:16,80.06,994.17,0.00,1023.08,-0.63,0.00,240,0.1
1580008631,2020-01-26 04:17,80.20,994.09,0.00,1023.01,-0.67,0.00,240,0.1
1580008691,2020-01-26 04:18,80.73,994.11,0.00,1023.03,-0.78,0.00,240,0.1
1580008752,2020-01-26 04:19,80.27,994.09,0.00,1023.00,-0.74,0.00,240,0.1
1580008812,2020-01-26 04:20,80.23,994.13,0.00,1023.05,-0.66,0.00,240,0.1
1580008872,2020-01-26 04:21,80.16,994.07,0.00,1022.99,-0.70,0.00,240,0.1
1580008932,2020-01-26 04:22,80.36,994.05,0.00,1022.96,-0.73,0.00,240,0.1
1580008992,2020-01-26 04:23,80.43,994.04,0.00,1022.95,-0.69,0.00,240,0.1
1580009052,2020-01-26 04:24,80.05,994.06,0.00,1022.98,-0.56,0.00,240,0.1
1580009112,2020-01-26 04:25,79.48,994.06,0.00,1022.98,-0.60,0.00,240,0.1
1580009172,2020-01-26 04:26,79.67,994.05,0.00,1022.96,-0.62,0.00,240,0.1
1580009232,2020-01-26 04:27,80.76,994.03,0.00,1022.95,-0.93,0.00,240,0.1
1580009292,2020-01-26 04:28,80.34,994.02,0.00,1022.94,-0.77,0.00,240,0.1
1580009353,2020-01-26 04:29,79.85,994.00,0.00,1022.91,-0.65,0.00,240,0.1
1580009413,2020-01-26 04:30,80.82,993.99,0.00,1022.90,-0.86,0.00,240,0.1
1580009473,2020-01-26 04:31,80.21,993.93,0.00,1022.84,-0.79,0.00,240,0.1
1580009533,2020-01-26 04:32,80.13,993.94,0.00,1022.86,-0.75,0.00,240,0.1
1580009593,2020-01-26 04:33,80.73,993.95,0.00,1022.87,-0.83,0.00,240,0.1
1580009653,2020-01-26 04:34,80.56,993.90,0.00,1022.82,-0.81,0.00,240,0.1
1580009713,2020-01-26 04:35,80.17,993.88,0.00,1022.79,-0.71,0.00,240,0.1
1580009773,2020-01-26 04:36,79.80,993.94,0.00,1022.86,-0.61,0.00,240,0.1
1580009834,2020-01-26 04:37,79.77,993.93,0.00,1022.84,-0.65,0.00,240,0.1
1580009957,2020-01-26 04:39,80.40,993.98,0.00,1022.90,-1.02,0.00,240,0.1
1580010017,2020-01-26 04:40,80.98,993.97,0.00,1022.89,-1.12,0.00,240,0.1
1580010077,2020-01-26 04:41,80.63,993.99,0.00,1022.91,-1.00,0.00,240,0.1
1580010137,2020-01-26 04:42,81.32,994.08,0.00,1022.99,-1.25,0.00,240,0.1
1580010197,2020-01-26 04:43,81.69,993.97,0.00,1022.89,-1.23,0.00,240,0.1
1580010257,2020-01-26 04:44,81.77,994.03,0.00,1022.95,-1.30,0.00,240,0.1
1580010317,2020-01-26 04:45,81.85,994.00,0.00,1022.91,-1.23,0.00,240,0.1
1580010377,2020-01-26 04:46,82.45,994.06,0.00,1022.97,-1.62,0.00,240,0.1
1580010437,2020-01-26 04:47,82.93,994.09,0.00,1023.00,-1.64,0.00,240,0.1
1580010497,2020-01-26 04:48,83.31,994.08,0.00,1022.99,-1.71,0.00,240,0.1
1580010557,2020-01-26 04:49,83.35,994.11,0.00,1023.03,-1.69,0.00,240,0.1
1580010617,2020-01-26 04:50,82.89,994.09,0.00,1023.00,-1.49,0.00,240,0.1
1580010678,2020-01-26 04:51,82.62,994.13,0.00,1023.04,-1.45,0.00,240,0.1
1580010738,2020-01-26 04:52,82.86,994.08,0.00,1022.99,-1.53,0.00,240,0.1
1580010798,2020-01-26 04:53,82.88,994.15,0.00,1023.06,-1.58,0.00,240,0.1
1580010858,2020-01-26 04:54,83.46,994.19,0.00,1023.10,-1.74,0.00,240,0.1
1580010918,2020-01-26 04:55,83.33,994.16,0.00,1023.08,-1.59,0.00,240,0.1
1580010978,2020-01-26 04:56,83.72,994.11,0.00,1023.03,-1.69,0.00,240,0.1
1580011039,2020-01-26 04:57,83.02,994.13,0.00,1023.04,-1.44,0.00,240,0.1
1580011099,2020-01-26 04:58,82.46,994.15,0.00,1023.07,-1.38,0.00,240,0.1
1580011159,2020-01-26 04:59,82.76,994.10,0.00,1023.02,-1.45,0.00,240,0.1
1580011219,2020-01-26 05:00,82.67,994.13,0.00,1023.05,-1.55,0.00,240,0.1
1580011279,2020-01-26 05:01,82.58,994.08,0.00,1023.00,-1.44,0.00,240,0.1
1580011339,2020-01-26 05:02,81.99,994.07,0.00,1022.98,-1.08,0.00,240,0.1
1580011399,2020-01-26 05:03,81.04,994.03,0.00,1022.94,-0.91,0.00,240,0.1
1580011460,2020-01-26 05:04,80.27,994.04,0.00,1022.95,-0.66,0.00,240,0.1
1580011520,2020-01-26 05:05,81.03,994.07,0.00,1022.98,-1.21,0.00,240,0.1
1580011580,2020-01-26 05:06,81.49,994.13,0.00,1023.04,-1.32,0.00,240,0.1
1580011640,2020-01-26 05:07,82.35,994.12,0.00,1023.04,-1.49,0.00,240,0.1
1580011700,2020-01-26 05:08,82.66,994.10,0.00,1023.01,-1.51,0.00,240,0.1
1580011761,2020-01-26 05:09,82.46,994.10,0.00,1023.02,-1.34,0.00,240,0.1
1580011821,2020-01-26 05:10,81.86,994.10,0.00,1023.01,-1.20,0.00,240,0.1
1580011881,2020-01-26 05:11,81.19,994.03,0.00,1022.95,-0.89,0.00,240,0.1
1580011941,2020-01-26 05:12,80.40,994.02,0.00,1022.94,-0.78,0.00,240,0.1
1580012001,2020-01-26 05:13,80.33,994.01,0.00,1022.92,-0.81,0.00,240,0.1
1580012061,2020-01-26 05:14,80.38,994.07,0.00,1022.99,-0.86,0.00,240,0.1
1580012121,2020-01-26 05:15,80.00,994.03,0.00,1022.95,-0.73,0.00,240,0.1
1580012182,2020-01-26 05:16,79.84,994.05,0.00,1022.96,-0.68,0.00,240,0.1
1580012242,2020-01-26 05:17,80.25,994.07,0.00,1022.98,-0.97,0.00,240,0.1
1580012302,2020-01-26 05:18,80.41,994.04,0.00,1022.96,-0.91,0.00,240,0.1
1580012362,2020-01-26 05:19,80.51,994.04,0.00,1022.96,-0.80,0.00,240,0.1
1580012422,2020-01-26 05:20,79.73,994.02,0.00,1022.94,-0.73,0.00,240,0.1
1580012482,2020-01-26 05:21,79.90,994.05,0.00,1022.96,-0.77,0.00,240,0.1
1580012542,2020-01-26 05:22,79.96,994.08,0.00,1023.00,-0.92,0.00,240,0.1
1580012602,2020-01-26 05:23,80.96,994.11,0.00,1023.02,-1.24,0.00,240,0.1
1580012662,2020-01-26 05:24,81.60,994.10,0.00,1023.02,-1.30,0.00,240,0.1
1580012722,2020-01-26 05:25,81.85,994.08,0.00,1023.00,-1.46,0.00,240,0.1
1580012782,2020-01-26 05:26,81.69,994.10,0.00,1023.02,-1.38,0.00,240,0.1
1580012842,2020-01-26 05:27,82.26,994.05,0.00,1022.97,-1.44,0.00,240,0.1
1580012902,2020-01-26 05:28,81.39,994.02,0.00,1022.94,-1.16,0.00,240,0.1
1580012963,2020-01-26 05:29,80.55,994.03,0.00,1022.94,-0.92,0.00,240,0.1